[[{"header":{"parameterUnit":"m.s-1","parameterCategory":1,"la1":30.2991,"la2":30.254,"lo1":-89.0895,"lo2":-89.0444,"dy":0.0017,"dx":0.0017,"nx":28,"ny":28,"refTime":"2025-05-18T09:00:00:Z","depth":0,"parameterNumber":2,"parameterNumberName":"U-component_of_WINDS"},"data":[0,0,0,0,0,0,0,0,0,0,0,0,0,0,0,0,0,0,0,0,0,0,0,0,0,0,0,0,0,0,0,0,0,0,0,0,0,0,0,0,0,0,0,0,0,0,0,0,0,0,0,0,0,0,0,0,0,0,-1.9309,-1.9308,0,-1.9264,-1.9263,-1.9263,-1.9206,-1.9206,-1.9205,-1.9204,-1.9158,-1.9158,-1.9158,0,0,0,0,0,0,0,0,0,0,0,0,0,-1.9347,-1.9347,-1.9309,-1.9308,-1.9308,-1.9264,-1.9263,-1.9263,-1.9207,-1.9206,-1.9204,-1.9203,-1.9158,-1.9158,-1.9157,0,0,0,0,0,0,0,0,0,0,0,0,0,-1.9319,-1.9347,-1.9309,-1.9274,-1.9271,-1.9264,-1.9263,-1.9263,-1.9207,-1.9206,-1.9204,-1.9203,-1.9159,-1.9158,-1.9157,-1.9181,0,0,-1.9156,-1.9155,0,0,0,0,0,0,0,0,-1.9321,-1.9318,-1.928,-1.9277,-1.9273,-1.9239,-1.926,-1.9235,-1.9207,-1.9231,-1.9204,-1.9202,-1.9186,-1.9183,-1.9178,-1.9179,-1.9177,-1.9156,-1.9155,-1.9155,-1.9155,0,0,0,0,0,0,0,-1.9323,-1.932,-1.9291,-1.928,-1.9275,-1.9262,-1.9256,-1.9255,-1.9217,-1.9229,-1.9225,-1.922,-1.9184,-1.9179,-1.9177,-1.9176,-1.9156,-1.9155,-1.9155,-1.9155,-1.9195,-1.9196,0,0,0,0,0,0,-1.933,-1.9322,-1.9292,-1.929,-1.9294,-1.9262,-1.9256,-1.9252,-1.9217,-1.921,-1.9221,-1.9218,-1.918,-1.9177,-1.9175,-1.92,-1.9155,-1.9155,-1.9154,-1.9193,-1.9195,-1.9197,0,0,0,0,0,0,-1.9331,-1.9328,-1.9294,-1.9304,-1.9299,-1.9263,-1.9258,-1.9251,-1.9246,-1.9211,-1.9204,-1.9223,-1.9179,-1.9175,-1.918,-1.9198,-1.9154,-1.9154,-1.9192,-1.9194,-1.9196,-1.9251,0,0,0,0,0,0,-1.9332,-1.9329,-1.9337,-1.9305,-1.9299,-1.93,-1.9259,-1.9251,-1.9245,-1.924,-1.921,-1.9204,-1.9178,-1.9181,-1.9179,-1.9196,-1.9153,-1.919,-1.9193,-1.9195,-1.9247,-1.9255,-1.9261,0,0,0,0,0,-1.9334,-1.9354,-1.9338,-1.9334,-1.9308,-1.9301,-1.9298,-1.9267,-1.9247,-1.9255,-1.9233,-1.9205,-1.9196,-1.9182,-1.918,-1.9196,-1.9189,-1.9192,-1.9195,-1.9244,-1.9253,-1.9261,0,0,0,0,0,0,-1.9389,-1.9349,-1.933,-1.9341,-1.9325,-1.9292,-1.9301,-1.9277,-1.9266,-1.9262,-1.9224,-1.9218,-1.9227,-1.9212,-1.9197,-1.9218,-1.9188,-1.9191,-1.9227,-1.9235,-1.9242,-1.9245,-1.9153,0,0,0,0,0,-1.9402,-1.94,-1.9365,-1.9378,-1.9371,-1.9338,-1.9333,-1.9311,-1.9293,-1.9286,-1.9264,-1.9247,-1.9241,-1.9237,-1.9229,-1.9246,-1.9238,-1.9256,-1.9263,-1.9269,-1.9271,-1.9279,-1.9286,-1.9207,-1.9207,-1.9207,0,0,-1.943,-1.9408,-1.9408,-1.9389,-1.9373,-1.9372,-1.9332,-1.9332,-1.933,-1.9286,-1.9288,-1.9272,-1.9251,-1.9262,-1.9265,-1.925,-1.9292,-1.9273,-1.9277,-1.9277,-1.9283,-1.929,-1.9297,-1.9209,-1.9209,-1.9208,0,0,-1.9479,-1.9462,-1.9471,-1.9457,-1.9434,-1.9412,-1.9415,-1.9385,-1.9373,-1.9375,-1.9342,-1.934,-1.9329,-1.9316,-1.9307,-1.9353,-1.9328,-1.9352,-1.9387,-1.9395,-1.9401,-1.9406,-1.9422,-1.9429,-1.9355,-1.9355,-1.9355,0,-1.9516,-1.9512,-1.9479,-1.948,-1.9473,-1.9433,-1.9441,-1.9429,-1.9406,-1.9402,-1.9385,-1.9371,-1.9354,-1.9361,-1.9373,-1.9367,-1.9369,-1.9354,-1.9403,-1.9408,-1.9412,-1.9427,-1.9433,-1.9358,-1.9357,-1.9357,-1.9357,0,-1.9558,-1.9556,-1.9566,-1.9544,-1.9538,-1.9543,-1.9511,-1.9509,-1.9488,-1.9468,-1.9471,-1.945,-1.9437,-1.9437,-1.9416,-1.9441,-1.9432,-1.941,-1.9379,-1.9423,-1.9437,-1.9442,-1.9362,-1.9361,-1.936,-1.9359,0,0,-1.964,-1.96,-1.9604,-1.9594,-1.9567,-1.9565,-1.9569,-1.9557,-1.9555,-1.9541,-1.9543,-1.9536,-1.9515,-1.9506,-1.9483,-1.9491,-1.9528,-1.9467,-1.9466,-1.9479,-1.9554,-1.9571,-1.9578,-1.9511,-1.9512,-1.9513,-1.9556,0,-1.9684,-1.9688,-1.9658,-1.9671,-1.9668,-1.9631,-1.9634,-1.9618,-1.96,-1.9596,-1.9576,-1.9571,-1.9544,-1.9538,-1.9544,-1.9522,-1.9543,-1.9519,-1.9513,-1.9513,-1.9519,-1.9585,-1.9603,-1.9644,-1.9561,-1.9562,-1.9563,0,-1.9735,-1.9723,-1.9735,-1.9708,-1.9706,-1.971,-1.9696,-1.9692,-1.9674,-1.966,-1.9651,-1.9625,-1.9627,-1.9599,-1.9602,-1.9587,-1.9583,-1.9573,-1.9573,-1.9571,-1.954,-1.9584,-1.9657,-1.9663,-1.9571,-1.957,-1.9569,0,-1.9793,-1.978,-1.9786,-1.9778,-1.9747,-1.975,-1.9737,-1.9718,-1.9712,-1.9701,-1.9697,-1.9686,-1.968,-1.9672,-1.9644,-1.9627,-1.9651,-1.962,-1.9639,-1.964,-1.9645,-1.9645,-1.9718,-1.9644,-1.9644,-1.9644,-1.9644,0,-1.9845,-1.9853,-1.9811,-1.9815,-1.9824,-1.979,-1.98,-1.9784,-1.9767,-1.9766,-1.9734,-1.9734,-1.9698,-1.9694,-1.9673,-1.9678,-1.9676,-1.9665,-1.9659,-1.9668,-1.9669,-1.9664,-1.966,-1.9646,-1.9645,-1.9645,-1.9645,0,-1.9911,-1.9883,-1.9886,-1.9856,-1.9849,-1.9857,-1.9831,-1.9834,-1.9814,-1.9814,-1.9812,-1.9781,-1.9775,-1.9747,-1.9735,-1.972,-1.9734,-1.9722,-1.974,-1.9736,-1.9756,-1.9755,-1.9827,-1.9835,-1.9758,-1.9758,-1.9759,0,-1.9945,-1.9951,-1.9922,-1.9919,-1.9908,-1.9904,-1.9898,-1.9866,-1.9862,-1.9841,-1.9846,-1.9838,-1.983,-1.9823,-1.9799,-1.979,-1.9777,-1.9804,-1.9776,-1.9784,-1.9777,-1.9777,-1.9778,-1.9809,-1.981,-1.9811,-1.9812,0,-2.0009,-1.9995,-1.9988,-1.9976,-1.9971,-1.996,-1.9947,-1.9947,-1.9912,-1.9909,-1.9902,-1.9896,-1.9884,-1.9876,-1.9863,-1.985,-1.9825,-1.9821,-1.9825,-1.9833,-1.9843,-1.9838,-1.9755,-1.9819,-1.9819,-1.9818,-1.9818,-1.9817,-2.006,-2.0063,-2.0043,-2.0037,-2.0024,-2.0013,-2.0014,-1.9994,-1.9988,-1.9975,-1.9957,-1.9954,-1.9936,-1.9915,-1.9905,-1.9902,-1.9887,-1.9893,-1.9894,-1.9896,-1.99,-1.9844,-1.9899,-1.9899,-1.9899,-1.9898,-1.9898,0,-2.0122,-2.0108,-2.0102,-2.0085,-2.008,-2.0057,-2.0043,-2.004,-2.0037,-2.0022,-2.0015,-2.0008,-2.0001,-1.9977,-1.9967,-1.997,-1.9958,-1.9968,-1.9967,-1.9965,-1.9914,-1.9911,-1.9978,-1.9978,-1.9978,-1.9978,-1.9978,-1.9977,-2.0154,-2.0158,-2.0142,-2.0141,-2.0126,-2.0122,-2.0116,-2.0106,-2.0094,-2.0087,-2.0081,-2.0066,-2.0047,-2.0036,-2.0029,-2.0022,-2.002,-2.0034,-2.0023,-1.9976,-1.9968,-1.9961,-1.9958,-2.0033,-2.0034,-2.0074,-2.0074,-2.0075]},{"header":{"parameterUnit":"m.s-1","parameterCategory":1,"la1":30.2991,"la2":30.254,"lo1":-89.0895,"lo2":-89.0444,"dy":0.0017,"dx":0.0017,"nx":28,"ny":28,"refTime":"2025-05-18T09:00:00:Z","depth":0,"parameterNumber":3,"parameterNumberName":"V-component_of_WINDS"},"data":[0,0,0,0,0,0,0,0,0,0,0,0,0,0,0,0,0,0,0,0,0,0,0,0,0,0,0,0,0,0,0,0,0,0,0,0,0,0,0,0,0,0,0,0,0,0,0,0,0,0,0,0,0,0,0,0,0,0,4.6011,4.6011,0,4.6013,4.6013,4.6013,4.5958,4.5956,4.5955,4.5953,4.5954,4.5956,4.5957,0,0,0,0,0,0,0,0,0,0,0,0,0,4.5958,4.5959,4.6011,4.6011,4.6011,4.6013,4.6013,4.6013,4.5958,4.5956,4.5954,4.5953,4.5954,4.5955,4.5957,0,0,0,0,0,0,0,0,0,0,0,0,0,4.5973,4.596,4.6011,4.5984,4.5981,4.6013,4.6013,4.6013,4.5958,4.5956,4.5954,4.5952,4.5953,4.5955,4.5957,4.6015,0,0,4.5964,4.5965,0,0,0,0,0,0,0,0,4.5972,4.5975,4.5988,4.5986,4.5983,4.5983,4.5995,4.6014,4.5959,4.5967,4.5953,4.5951,4.5965,4.5966,4.5972,4.6015,4.6015,4.5964,4.5965,4.5966,4.5967,0,0,0,0,0,0,0,4.5971,4.5974,4.6012,4.5988,4.5985,4.5971,4.5971,4.5998,4.5979,4.5966,4.5962,4.5963,4.5964,4.597,4.5971,4.6015,4.5964,4.5966,4.5967,4.5968,4.6107,4.6109,0,0,0,0,0,0,4.5974,4.5974,4.6012,4.6012,4.5972,4.5974,4.5974,4.5985,4.5978,4.5975,4.5965,4.5961,4.5967,4.5969,4.5971,4.6039,4.5966,4.5968,4.5969,4.6104,4.6107,4.611,0,0,0,0,0,0,4.5973,4.5978,4.6012,4.5992,4.5995,4.5977,4.5991,4.5986,4.5992,4.5977,4.5974,4.5975,4.5966,4.5968,4.6005,4.6038,4.5969,4.5971,4.6102,4.6105,4.6109,4.6175,0,0,0,0,0,0,4.5972,4.5978,4.6,4.5993,4.5996,4.6046,4.5993,4.5988,4.5996,4.599,4.5986,4.5983,4.5964,4.6002,4.6007,4.604,4.5973,4.6099,4.6103,4.6108,4.617,4.618,4.619,0,0,0,0,0,4.597,4.6018,4.6001,4.6006,4.6023,4.6048,4.605,4.6028,4.5999,4.6021,4.6012,4.5983,4.6034,4.6006,4.6011,4.6045,4.6096,4.6102,4.6107,4.6165,4.6178,4.6189,0,0,0,0,0,0,4.6028,4.6016,4.5998,4.6044,4.6048,4.6038,4.6065,4.6042,4.6053,4.6047,4.6019,4.6018,4.606,4.6056,4.6025,4.6101,4.606,4.6067,4.6102,4.6115,4.6124,4.6125,4.5974,0,0,0,0,0,4.6046,4.6068,4.6056,4.6098,4.6101,4.6083,4.6093,4.6076,4.6078,4.6078,4.6072,4.6074,4.6091,4.6102,4.6117,4.6169,4.6167,4.6195,4.6205,4.6213,4.6219,4.6248,4.626,4.6128,4.6128,4.6128,0,0,4.6084,4.608,4.6095,4.611,4.611,4.6133,4.6084,4.611,4.6127,4.6082,4.6117,4.6112,4.6113,4.6158,4.6178,4.6157,4.6256,4.622,4.6227,4.6229,4.6255,4.6267,4.6279,4.6132,4.6131,4.613,0,0,4.6165,4.6164,4.62,4.6202,4.6203,4.6191,4.62,4.6195,4.619,4.6225,4.6192,4.6211,4.624,4.6243,4.6248,4.6331,4.6306,4.6337,4.6389,4.6417,4.6427,4.6436,4.6467,4.6478,4.6343,4.6343,4.6343,0,4.6211,4.6245,4.6221,4.6249,4.6257,4.6219,4.6255,4.6258,4.6264,4.627,4.6246,4.6283,4.6281,4.6327,4.6347,4.6352,4.6362,4.6337,4.6428,4.6437,4.6445,4.6474,4.6485,4.6347,4.6346,4.6346,4.6346,0,4.6302,4.6326,4.6355,4.6363,4.6374,4.6406,4.6387,4.6401,4.6383,4.6374,4.641,4.6407,4.642,4.643,4.6412,4.6473,4.646,4.6433,4.6391,4.6462,4.6489,4.6499,4.6352,4.6351,4.635,4.6349,0,0,4.6419,4.6415,4.6426,4.643,4.643,4.6447,4.6478,4.6492,4.6505,4.6511,4.6536,4.6562,4.6537,4.6543,4.6526,4.655,4.6618,4.6519,4.6519,4.6539,4.6686,4.6708,4.6721,4.6601,4.6603,4.6604,4.6687,0,4.6498,4.6552,4.6532,4.6586,4.6608,4.6573,4.66,4.6602,4.6595,4.6612,4.6603,4.6623,4.6587,4.6591,4.6614,4.6605,4.6647,4.6599,4.6624,4.6626,4.6626,4.6735,4.6758,4.6836,4.6697,4.6699,4.67,0,4.6598,4.6609,4.6667,4.6664,4.6672,4.6697,4.6709,4.6726,4.6729,4.6721,4.6729,4.6706,4.6736,4.6694,4.6735,4.6703,4.6712,4.671,4.6712,4.6714,4.6668,4.6741,4.686,4.6872,4.6716,4.6715,4.6714,0,4.6679,4.6708,4.6747,4.6751,4.6748,4.6767,4.6766,4.6767,4.6777,4.6787,4.6794,4.6807,4.6815,4.6826,4.6807,4.6778,4.6852,4.6808,4.6847,4.6848,4.6865,4.6864,4.6988,4.6869,4.6869,4.6869,4.6869,0,4.677,4.6807,4.6783,4.6807,4.6847,4.6824,4.6864,4.686,4.6861,4.6883,4.6852,4.6874,4.6848,4.6867,4.6852,4.689,4.6893,4.6888,4.6884,4.6891,4.6892,4.6898,4.6892,4.6872,4.6871,4.6871,4.687,0,4.6867,4.6853,4.6893,4.6888,4.6887,4.6917,4.6913,4.6934,4.6925,4.6953,4.6959,4.6944,4.6964,4.6947,4.6967,4.6957,4.7007,4.6995,4.7007,4.7004,4.7044,4.7041,4.7176,4.7193,4.7064,4.7065,4.7066,0,4.6927,4.6955,4.6953,4.6966,4.6968,4.699,4.7,4.6979,4.6991,4.6997,4.7018,4.7037,4.705,4.7085,4.7076,4.7091,4.708,4.7126,4.7082,4.7089,4.7082,4.7081,4.7084,4.7135,4.7137,4.7138,4.7139,0,4.7035,4.7027,4.7044,4.7059,4.7073,4.7084,4.7092,4.7104,4.7082,4.7097,4.7119,4.713,4.7151,4.717,4.7182,4.7181,4.7157,4.7153,4.7163,4.7171,4.7178,4.7176,4.7032,4.715,4.7149,4.7148,4.7148,4.7147,4.7116,4.7139,4.7142,4.7163,4.7167,4.7175,4.7196,4.719,4.7207,4.7224,4.7209,4.7236,4.7238,4.7253,4.7255,4.7275,4.7256,4.727,4.7274,4.7278,4.7285,4.7174,4.7277,4.7277,4.7276,4.7276,4.7276,0,4.7223,4.7223,4.7242,4.7256,4.7272,4.7248,4.7256,4.7271,4.7295,4.73,4.7314,4.734,4.7358,4.7351,4.7367,4.7385,4.7374,4.739,4.7389,4.7389,4.73,4.729,4.7398,4.7398,4.7398,4.7398,4.7398,4.7398,4.7281,4.732,4.7312,4.7353,4.7353,4.7379,4.7386,4.7394,4.7398,4.7428,4.7444,4.7439,4.7439,4.7455,4.7471,4.7469,4.7476,4.7497,4.749,4.7407,4.7395,4.7384,4.7374,4.7498,4.7498,4.7577,4.7578,4.7579]}]]